This is the latest recevied weather packets stored in our database for station/object N0HEQ. If no packets are shown the sender has not sent any weather packets the latest 10 day(s).
| Time | Temp. | Humidity | Pressure | Rain* | Wind** | Luminosity | Snow |
|---|---|---|---|---|---|---|---|
| 1777407733 | 13.33° C | 43% | 1018.7 hPa | 0 mm | - | 883 W/m² | - |
| 1777407433 | 13.33° C | 43% | 1018.8 hPa | 0 mm | - | 235 W/m² | - |
| 1777407129 | 15.56° C | 42% | 1018.9 hPa | 0 mm | - | 466 W/m² | - |
| 1777406824 | 15.56° C | 42% | 1018.7 hPa | 0 mm | - | 854 W/m² | - |
| 1777406519 | 15° C | 42% | 1018.8 hPa | 0 mm | - | 826 W/m² | - |
| 1777406215 | 13.89° C | 42% | 1018.8 hPa | 0 mm | - | 825 W/m² | - |
| 1777405914 | 15° C | 43% | 1018.6 hPa | 0 mm | - | 316 W/m² | - |
| 1777405611 | 14.44° C | 42% | 1018.6 hPa | 0 mm | - | 826 W/m² | - |
| 1777405309 | 14.44° C | 43% | 1018.7 hPa | 0 mm | - | 827 W/m² | - |
| 1777405008 | 14.44° C | 43% | 1018.7 hPa | 0 mm | - | 560 W/m² | - |
| 1777404703 | 13.89° C | 45% | 1018.6 hPa | 0 mm | - | 881 W/m² | - |
| 1777404399 | 13.33° C | 47% | 1018.5 hPa | 0 mm | - | 889 W/m² | - |
| 1777404097 | 14.44° C | 45% | 1018.7 hPa | 0 mm | - | 524 W/m² | - |
| 1777403792 | 13.89° C | 46% | 1018.5 hPa | 0 mm | - | 859 W/m² | - |
| 1777403491 | 14.44° C | 46% | 1018.5 hPa | 0 mm | - | 908 W/m² | - |
| 1777403185 | 12.78° C | 47% | 1018.6 hPa | 0 mm | - | 894 W/m² | - |
| 1777402881 | 13.89° C | 48% | 1018.5 hPa | 0 mm | - | 576 W/m² | - |
| 1777402578 | 13.33° C | 51% | 1018.7 hPa | 0 mm | - | 788 W/m² | - |
| 1777402277 | 12.78° C | 53% | 1018.5 hPa | 0 mm | - | 651 W/m² | - |
| 1777401976 | 12.78° C | 53% | 1018.5 hPa | 0 mm | - | 823 W/m² | - |
| 1777401675 | 12.78° C | 52% | 1018.3 hPa | 0 mm | - | 173 W/m² | - |
| 1777401373 | 12.78° C | 53% | 1018.3 hPa | 0 mm | - | 197 W/m² | - |
| 1777401068 | 13.33° C | 53% | 1018.5 hPa | 0 mm | - | 840 W/m² | - |
| 1777400763 | 13.89° C | 51% | 1018.5 hPa | 0 mm | - | 801 W/m² | - |
| 1777400461 | 12.78° C | 53% | 1018.3 hPa | 0 mm | - | 483 W/m² | - |
* Rain latest hour (hover to see other rain measurements)
** Current wind speed in m/s (hover to see current wind gust speed)